Flag for Canada Weather past 2 weeks in Granby, Quebec, Canada

Now
25 °F

Cold.


Feels Like: 17 °F
Forecast: 6 / 23 °F
Wind: 7 mph from South

Location: Frelighsburg

Current Time: Mar 1, 2015 at 7:19:25 PM

Latest Report: Mar 1, 2015 at 7:00 PM


Visibility: N/A

Pressure: 30.15 "Hg

Humidity: 71%

Dew point: 16 °F

Location of GranbyLocation

Historic Weather in Granby — Graph

°F

Granby temperature yesterday

Maximum temperature yesterday: 21 °F (at 3:00 PM)
Minimum temperature yesterday: 2 °F (at 2:00 AM)
Average temperature yesterday: 11 °F

Past Weeks' High & Low Weather Summary

 TemperatureHumidityPressure
High29 °F (Mar 1, 3:00 PM)100% (Feb 22, 3:00 AM)30.72 "Hg (Feb 22, 3:00 AM)
Low-14 °F (Feb 24, 2:00 AM)27% (Feb 21, 12:00 PM)29.59 "Hg (Feb 19, 4:00 AM)
Average6 °F62%30.08 "Hg
* Reported Feb 14 6:00 PM — Mar 1 6:00 PM, Granby, Weather by CustomWeather, © 2015

Note: Actual official high and low records may vary slightly from our data, if they occured in-between our weather recording intervals... More about our weather records

Advertising

Granby weather history for previous 24 hours

 ConditionsComfort  
Time TempWeatherWind HumidityBarometerVisibility
6:00 PM
Sun, Mar 1
25 °FChilly.7 mph68%30.17 "HgN/A
5:00 PM28 °FChilly.7 mph60%30.21 "HgN/A
4:00 PM27 °FChilly.7 mph57%30.24 "HgN/A
3:00 PM29 °FChilly.6 mph43%30.25 "HgN/A
2:00 PM27 °FChilly.6 mph33%30.30 "HgN/A
1:00 PM26 °FChilly.10 mph39%30.35 "HgN/A
12:00 PM25 °FChilly.6 mph30%30.40 "HgN/A
11:00 AM24 °FCold.6 mph34%30.45 "HgN/A
10:00 AM17 °FCold.3 mph51%30.50 "HgN/A
9:00 AM13 °FCold.6 mph60%30.54 "HgN/A
8:00 AM12 °FCold.3 mph64%30.57 "HgN/A
7:00 AM11 °FCold.5 mph74%30.58 "HgN/A
6:00 AM11 °FCold.3 mph70%30.61 "HgN/A
5:00 AM11 °FCold.3 mph65%30.60 "HgN/A
4:00 AM7 °FFrigid.3 mph76%30.62 "HgN/A
3:00 AM8 °FFrigid.3 mph75%30.65 "HgN/A
2:00 AM9 °FFrigid.3 mph72%30.66 "HgN/A
1:00 AM11 °FCold.2 mph65%30.66 "HgN/A
12:00 AM11 °FCold.2 mph66%30.67 "HgN/A
11:00 PM
Sat, Feb 28
12 °FCold.1 mph64%30.66 "HgN/A
10:00 PM13 °FCold.3 mph61%30.66 "HgN/A
9:00 PM14 °FCold.2 mph59%30.66 "HgN/A
8:00 PM13 °FCold.1 mph60%30.66 "HgN/A
7:00 PM15 °FCold.2 mph54%30.66 "HgN/A
Weather by CustomWeather, © 2015

See weather overviewHow to use our weather pages